#timestamp,LO_Frequency,Hit,StdDev 
1573110015.1,286046999.4,N
1573110016.0,286046999.4,N
1573110035.8,286046999.2,N
1573110055.6,286047000.5,N
1573110075.5,286046998.6,N
1573110095.3,286047000.8,N
1573110115.2,286047001.0,N
1573110135.9,286046996.6,N
1573110155.7,286046996.9,N
1573110175.6,286046998.0,N
1573110195.4,286046997.1,N
1573110215.2,286046999.0,N
1573110235.1,286046998.5,N
1573110236.0,286046998.5,N
1573110255.8,286047000.2,N
1573110275.7,286047003.8,N
1573110295.5,286047001.4,N
1573110315.3,286047000.5,N
1573110335.2,286046999.9,N
1573110355.0,286046999.9,N
1573110355.9,286046999.9,N
1573110375.7,286047000.7,N
1573110395.6,286047000.9,N
1573110415.4,286047000.3,N
1573110435.3,286047000.2,N
1573110455.1,286047002.1,N
1573110456.0,286047002.1,N
1573110475.8,286047001.3,N
1573110495.7,286047003.5,N
1573110515.5,286047006.0,Y
1573110535.3,286047007.5,P
1573110555.2,286047005.6,N
1573110575.0,286047003.0,N
1573110575.9,286047003.0,N
1573110595.8,286047004.0,N
1573110615.6,286047001.4,N
1573110635.4,286047003.2,N
1573110655.3,286047003.0,N
1573110675.1,286047003.4,N
1573110695.9,286047004.2,N
1573110715.7,286047003.7,N
1573110735.5,286047003.2,N
1573110755.4,286047002.5,N
1573110775.2,286046999.9,N
1573110795.0,286047001.7,N
1573110795.9,286047001.7,N
1573110815.8,286047005.5,Y
1573110835.6,286047002.7,P
1573110855.5,286047001.4,P
1573110875.3,286047003.6,P
1573110895.1,286047004.0,Y
1573110915.9,286047000.8,P
1573110935.7,286046998.4,N
1573110955.6,286046999.0,N
1573110975.4,286047001.1,N
1573110995.2,286047001.0,N
1573111015.1,286046999.6,N
1573111016.0,286046999.6,N
1573111035.8,286046998.4,N
1573111055.7,286046998.2,N
1573111075.5,286047002.2,N
1573111095.3,286047002.0,N
1573111115.2,286047003.4,N
1573111135.0,286047007.2,Y
1573111135.9,286047007.2,P
1573111155.8,286047002.9,N
1573111175.6,286047003.6,N
1573111195.4,286047003.5,N
1573111215.3,286047003.0,N
1573111235.1,286047005.0,N
1573111255.8,286047004.8,N
1573111275.7,286047006.0,Y
1573111295.5,286047000.7,P
1573111315.4,286046999.1,N
1573111335.2,286046999.6,N
1573111355.0,286046998.8,N
1573111355.9,286046998.8,N
1573111375.8,286046998.5,N
1573111395.6,286047000.7,N
1573111415.5,286046998.4,N
1573111435.3,286046998.4,N
1573111455.1,286046998.1,N
1573111475.9,286047000.4,N
1573111495.7,286046997.0,N
1573111515.5,286046999.4,N
1573111535.4,286046998.2,N
1573111555.2,286046996.8,N
1573111575.1,286046996.7,N
1573111576.0,286046996.7,N
1573111595.8,286046998.3,N
1573111615.6,286046998.7,N
1573111635.5,286046999.9,N
1573111655.3,286047000.0,N
1573111675.2,286047000.4,N
1573111695.9,286046998.5,N
1573111715.7,286047000.0,N
1573111735.6,286047000.5,N
1573111755.4,286047001.1,N
1573111775.2,286047000.9,N
1573111795.1,286047000.5,N
1573111796.0,286047000.5,N
1573111815.8,286047002.3,N
1573111835.7,286047000.8,N
1573111855.5,286047001.2,N
1573111875.3,286046997.0,N
1573111895.2,286047001.1,N
1573111915.0,286046999.3,N
1573111915.9,286046999.3,N
1573111935.8,286046999.1,N
1573111955.6,286046996.5,N
1573111975.4,286046999.6,N
1573111995.3,286046998.3,N
1573112015.1,286046998.3,N
1573112035.9,286047001.1,N
1573112055.7,286047000.7,N
1573112075.5,286046996.7,N
1573112095.4,286047001.0,N
1573112115.2,286046999.0,N
1573112135.0,286046999.2,N
1573112135.9,286046999.2,N
1573112155.8,286046999.6,N
1573112175.6,286046994.9,Y
1573112195.5,286046996.8,P
1573112215.3,286046999.2,N
1573112235.1,286046999.2,N
1573112255.9,286046999.6,N
1573112275.7,286046998.4,N
1573112295.5,286046999.5,N
1573112315.4,286046996.7,Y
1573112335.2,286046999.3,P
1573112355.1,286046999.4,P
1573112356.0,286046999.4,P
1573112375.8,286046998.9,Y
1573112395.6,286046999.0,P
1573112415.5,286046999.6,P
1573112435.3,286046998.2,P
1573112455.2,286047001.0,N
1573112475.9,286047011.9,Y
1573112495.7,286047003.1,P
1573112515.6,286047002.7,N
1573112535.4,286047000.7,N
1573112555.2,286046998.6,N
1573112575.1,286046998.3,N
1573112576.0,286046998.3,N
1573112595.8,286047000.6,N
1573112615.7,286046999.7,N
1573112635.5,286047003.6,N
1573112655.3,286047003.1,N
1573112675.2,286047002.1,N
1573112695.0,286047001.6,N
1573112695.9,286047001.6,N
1573112715.8,286047002.4,N
1573112735.6,286047002.5,N
1573112755.4,286046999.7,N
1573112775.3,286047000.7,N
1573112795.1,286047000.7,N
1573112815.9,286047000.5,N
1573112835.7,286046998.1,N
1573112855.5,286047000.6,N
1573112875.4,286047000.4,N
1573112895.2,286047000.3,N
1573112915.0,286046998.3,N
1573112915.9,286046998.3,N
1573112935.8,286046998.3,N
1573112955.6,286046999.1,N
1573112975.5,286046999.1,N
1573112995.3,286046998.4,N
1573113015.1,286046996.5,N
1573113035.9,286046996.6,N
1573113055.7,286047000.9,N
1573113075.5,286046999.1,N
1573113095.4,286046996.9,N
1573113115.2,286047000.8,N
1573113135.1,286046998.6,N
1573113136.0,286046998.6,N
1573113155.8,286047001.1,N
1573113175.6,286047001.2,N
1573113195.5,286046996.6,N
1573113215.3,286046997.0,N
1573113235.1,286046999.1,N
1573113255.9,286046997.1,N
1573113275.7,286046999.5,N
1573113295.6,286046999.0,N
1573113315.4,286046998.6,N
1573113335.2,286046998.7,N
1573113355.1,286046999.8,N
1573113356.0,286046999.8,N
1573113375.8,286047000.5,N
1573113395.6,286046999.9,N
1573113415.5,286047002.1,N
1573113435.3,286046999.8,N
1573113455.2,286047011.9,Y
1573113475.9,286047003.0,P
1573113495.7,286047006.9,P
1573113515.6,286047006.4,N
1573113535.4,286047008.6,N
1573113555.2,286047010.3,Y
1573113575.1,286047005.0,P
1573113576.0,286047005.0,P
1573113595.8,286047003.5,P
